Simultaneous Nadir Overpasses (SNOs) Predictions

Prediction of SNOs between GOES-16 and METOP-C Satellite Orbit:

Table of predicted SNOs for the next 14.0 days since TLE Epoch: 9/21/2019
Index Date Time (GOES-16) GOES-16 Lat,Lon METOP-C Lat,Lon Distance(km) Time Diff (sec)
1 09/22/2019 14:28:45 0.01, -75.21 -0.08, -74.83 43.80 80
2 09/24/2019 02:50:25 -0.01, -75.19 -0.97, -79.42 481.87 80
3 09/25/2019 02:27:05 -0.01, -75.20 0.15, -74.42 87.48 80
4 09/26/2019 14:48:37 0.00, -75.22 0.86, -78.99 429.49 80
5 09/27/2019 14:25:17 -0.00, -75.23 -0.26, -73.99 140.27 80
6 09/29/2019 02:46:59 0.00, -75.22 -0.72, -78.60 384.21 80
7 09/30/2019 02:23:39 0.01, -75.23 0.39, -73.61 186.02 80
8 10/01/2019 14:45:10 -0.01, -75.27 0.62, -78.17 329.77 80
9 10/02/2019 14:21:51 -0.01, -75.28 -0.49, -73.17 240.69 80
10 10/04/2019 02:43:31 0.02, -75.29 -0.53, -77.77 282.81 80
11 10/05/2019 02:20:12 0.00, -75.30 0.58, -72.78 288.43 80




NCC Satellite Simultaneous Nadir Overpasses (SNOs) Prediction Service
